Notices

What's New in latest Release from April 7th, 2021:

- Updated Glossary, including Speed of Maximum Gust, and Total Hourly Precipitation

- Updated national and regional climate services offices contacts and prices information

- Addition of station inventory lists for 1981-2010, 1971-2000, and 1961-1990 Normals.

If you haven't already, please take our survey and provide feedback about our website: https://eccc.sondage-survey.ca/f/LanguageSelection.aspx?s=442ca660-fcf1-47c0-95a9-59707d6fd709

Hourly Data Report for October 05, 2019

PINAWA
MANITOBA
Current Station Operator: ECCC - MSC

50°10'38.020" N
96°03'53.000" W
268.00 m
503B1ER
71448
WEA

Download Data

Hourly Data (October 2019)
Hourly Data Report for October 5, 2019
TIME
LST
Temp Definition
°C
Dew Point Definition
°C
Rel Hum Definition
%
Precip. Amount Definition
mm

Wind Dir Definition
10's deg

Wind Spd Definition
km/h
Visibility Definition
km
Stn Press Definition
kPa
Hmdx Definition


Wind Chill Definition


Weather Definition


00:00 7.0 LegendMM LegendMM LegendMM 16 8   98.70     LegendNANA
01:00 6.8 LegendMM LegendMM LegendMM 14 11   98.57     LegendNANA
02:00 6.6 LegendMM LegendMM LegendMM 14 10   98.41     LegendNANA
03:00 6.6 LegendMM LegendMM LegendMM 13 11   98.29     LegendNANA
04:00 6.6 LegendMM LegendMM LegendMM 14 13   98.20     LegendNANA
05:00 6.4 LegendMM LegendMM LegendMM 14 10   98.08     LegendNANA
06:00 5.9 LegendMM LegendMM LegendMM 12 11   97.96     LegendNANA
07:00 5.9 LegendMM LegendMM LegendMM 13 10   97.87     LegendNANA
08:00 5.9 LegendMM LegendMM LegendMM 13 7   97.70     LegendNANA
09:00 6.0 LegendMM LegendMM LegendMM 12 11   97.56     LegendNANA
10:00 6.3 LegendMM LegendMM LegendMM 12 9   97.42     LegendNANA
11:00 7.0 LegendMM LegendMM LegendMM 13 7   97.30     LegendNANA
12:00 7.6 LegendMM LegendMM LegendMM 14 7   97.18     LegendNANA
13:00 7.8 LegendMM LegendMM LegendMM 15 5   97.04     LegendNANA
14:00 8.1 LegendMM LegendMM LegendMM 17 5   96.88     LegendNANA
15:00 8.4 LegendMM LegendMM LegendMM 24 4   96.78     LegendNANA
16:00 7.6 LegendMM LegendMM LegendMM 29 10   96.81     LegendNANA
17:00 6.8 LegendMM LegendMM LegendMM 29 15   96.77     LegendNANA
18:00 6.4 LegendMM LegendMM LegendMM 30 16   96.79     LegendNANA
19:00 6.0 LegendMM LegendMM LegendMM 29 22   96.78     LegendNANA
20:00 5.3 LegendMM LegendMM LegendMM 29 17   96.77     LegendNANA
21:00 4.8 LegendMM LegendMM LegendMM 28 15   96.78     LegendNANA
22:00 4.5 LegendMM LegendMM LegendMM 27 10   96.78     LegendNANA
23:00 5.0 LegendMM LegendMM LegendMM 27 11   96.78     LegendNANA

Notes on Data Quality.

Legend

  • E = Estimated
  • M = Missing
  • NA = Not Available*
  • [empty] = Indicates an unobserved value
Date modified: